Powrót do katalogu

THORAD AGENA D DEB

AktywnySSO
NORAD 4859·DEBRIS·🇺🇸 United States

Wystrzelony Apr 8, 1970 z Vandenberg Space Force Base

Loading…

Następne Przeloty (najbliższe 24 godziny)

TLE

ŚwieżeSource: Space-Track

Epoka: Sep 14, 2026, 18:26 UTC

1 04859U 70025EP  26257.76866844  .00000277  00000-0  42141-3 0  9992
2 04859  99.9487 358.2736 0047152  80.1966  82.3880 13.61302950779908

Śledź THORAD AGENA D DEB w czasie rzeczywistym z AllMySat

Download on the App Store